GFSFLT1_925_temp_273.txt.gz
Temp
11 11 10 10 10 10 11 12 12 12 11 11 11 12 11 12 11 11 12 12 13 12 12 11 10 10 11 12 12 12 13 12
11 10 10 10 10 10 10 11 11 11 10 10 9 9 8 10 9 10 11 11 11 12 11 11 9 9 8 9 9 11 12 11
11 10 10 9 9 9 10 11 11 11 10 9 8 8 7 7 7 7 9 9 9 8 8 7 7 8 7 7 8 9 11 10
11 10 9 9 9 9 9 10 10 10 9 9 8 7 7 7 7 6 6 7 8 8 8 7 6 6 6 6 6 7 8 10
11 10 9 9 8 8 8 9 10 10 10 8 7 8 7 6 6 6 5 6 6 6 6 6 5 5 5 6 5 5 6 8
12 10 9 9 8 8 8 8 8 8 9 7 7 6 6 6 6 5 5 5 4 4 4 4 4 4 4 4 4 4 5 5
11 10 9 9 8 8 7 7 7 8 8 7 6 6 6 6 5 6 5 5 4 4 4 4 4 4 4 4 4 4 4 5
11 10 10 9 8 8 7 7 6 6 7 6 6 5 5 5 5 5 5 5 4 3 3 3 3 3 3 3 3 3 3 3
11 11 10 9 8 8 8 7 7 6 6 5 5 5 5 5 4 4 4 4 3 2 2 2 2 2 2 2 3 3 3 3
12 11 10 9 9 8 8 7 7 6 6 5 5 5 5 4 4 3 3 3 3 2 2 2 2 2 2 2 3 2 2 2
13 11 10 10 9 8 8 7 7 6 6 5 5 4 4 4 3 3 2 2 2 2 1 1 1 2 2 1 2 1 1 1
13 12 10 10 9 8 7 7 6 6 6 5 4 4 4 4 3 2 2 2 1 1 1 1 1 1 1 1 1 1 0 -0
13 12 10 9 9 8 7 7 6 6 5 4 4 4 4 3 2 2 2 1 1 1 1 1 1 1 0 0 0 -0 -1 -0
13 11 10 10 9 8 8 7 6 5 5 4 4 4 3 2 2 2 1 1 1 1 1 1 1 0 -0 -0 -0 -1 -0 -0
12 12 11 10 9 8 7 7 6 5 5 4 3 3 2 2 2 1 1 1 1 1 1 0 0 -0 -1 -1 -1 -1 -0 -0
12 12 11 10 9 8 7 6 5 5 5 4 3 2 2 2 2 1 1 0 0 0 0 -0 -0 -1 -2 -2 -1 -1 -1 -1
12 12 10 9 8 8 7 6 5 5 4 3 2 2 2 1 1 1 0 0 -0 -0 -0 -1 -1 -1 -3 -3 -3 -1 -1 -1
12 12 10 10 9 7 7 6 5 4 4 3 2 2 2 1 1 1 0 0 -0 -0 -1 -1 -1 -2 -3 -3 -3 -1 -1 -1
13 12 11 10 8 7 6 5 5 4 4 3 2 2 1 1 1 1 0 -0 -0 -1 -1 -1 -1 -2 -4 -4 -3 -2 -1 -1

GFSFLT1_925_temp_276.txt.gz
Temp
16 16 16 16 14 11 11 11 11 12 12 12 12 12 11 10 10 10 11 12 12 13 13 12 14 14 14 13 14 15 16 16
16 15 15 15 14 11 11 11 10 11 11 12 12 12 13 12 10 10 10 10 11 11 12 12 13 12 11 12 13 15 16 14
16 15 15 15 14 13 11 11 11 11 10 11 12 12 12 11 10 10 10 9 9 10 10 11 10 12 11 10 11 13 14 13
17 16 15 14 14 13 13 13 12 12 12 11 11 11 12 12 11 10 9 9 9 9 9 9 10 10 10 10 9 10 13 13
17 16 15 14 13 12 12 12 11 11 12 13 13 14 13 11 10 9 9 8 8 8 8 8 8 9 8 9 9 9 10 12
17 16 15 14 12 11 11 11 11 10 10 11 12 11 11 10 10 9 8 8 7 7 7 7 8 8 8 8 8 8 9 9
16 15 14 13 12 11 11 10 10 10 10 10 10 10 10 10 10 10 10 9 8 7 7 7 7 7 7 7 7 7 7 8
17 15 14 13 12 11 11 11 10 9 9 9 9 9 9 9 10 10 10 9 8 6 7 6 6 6 6 6 6 7 6 7
17 15 14 13 12 11 11 11 10 9 9 8 8 9 9 9 8 9 8 8 7 6 6 6 6 6 6 6 7 6 6 6
17 15 14 13 12 11 11 10 10 9 9 8 8 8 8 7 7 7 7 7 6 5 5 5 5 5 5 6 6 5 5 5
17 16 14 13 12 11 10 10 10 9 8 8 8 8 7 7 7 6 6 6 6 5 5 5 5 5 5 5 5 4 4 4
17 16 14 13 12 11 10 10 9 9 8 8 8 7 7 6 6 6 5 5 5 5 5 5 5 4 4 4 4 3 3 3
17 16 14 14 13 12 11 10 10 9 8 8 7 7 6 6 6 5 5 5 4 4 5 5 4 4 4 3 4 3 4 4
17 17 15 14 13 12 11 11 10 9 8 7 7 6 6 6 5 5 5 4 4 4 4 4 4 3 3 3 3 3 3 3
18 17 16 14 13 12 12 11 10 9 8 8 7 7 6 6 5 5 4 4 5 4 4 4 3 3 2 2 3 3 3 3
18 17 16 14 13 12 11 11 9 9 8 8 7 6 5 5 5 4 4 4 4 4 4 3 3 2 -0 -1 1 3 3 3
18 17 16 14 13 12 11 10 9 9 8 8 6 6 5 5 4 4 4 4 4 3 3 3 3 1 -1 -0 -1 3 3 3
18 17 16 14 13 12 11 9 9 8 8 7 6 6 5 5 4 4 4 4 3 3 3 3 2 0 -1 -0 -0 2 3 2
18 18 16 14 13 11 10 9 8 8 7 7 6 5 5 5 5 4 4 4 4 3 3 2 2 -0 0 -0 0 2 2 2

GFSFLT1_925_temp_279.txt.gz
Temp
22 22 21 21 16 12 11 11 12 12 13 13 12 12 13 12 12 12 13 13 14 15 15 14 16 16 16 15 15 17 18 17
21 20 20 19 14 11 11 11 11 12 12 12 13 12 13 13 12 12 12 12 13 13 15 14 15 14 13 13 14 16 17 16
21 20 19 19 16 12 11 11 11 12 13 15 15 14 14 14 12 12 12 12 12 12 13 13 13 14 12 12 13 14 16 15
21 20 19 18 18 14 13 12 12 12 13 13 13 13 14 15 14 13 11 11 11 11 11 11 12 12 12 11 11 12 14 15
22 20 19 18 17 16 16 15 14 14 15 15 16 17 17 14 14 12 11 11 11 10 10 10 11 11 11 11 11 12 12 13
21 20 19 18 16 15 15 15 15 14 15 15 16 15 14 14 12 12 11 10 10 10 10 10 10 10 10 10 10 10 11 11
21 20 18 17 16 15 14 14 13 13 13 14 14 14 14 13 13 13 12 11 10 9 9 9 9 9 9 9 9 9 9 9
21 20 18 17 15 14 14 14 13 13 12 12 12 12 12 12 13 13 12 12 10 9 9 9 9 8 8 9 8 9 8 8
21 20 19 17 15 14 14 13 13 12 12 12 12 12 12 12 12 12 11 11 9 8 8 8 8 8 8 8 8 8 8 8
21 20 18 16 14 13 13 13 13 12 12 11 11 11 11 11 10 10 10 9 9 8 8 8 8 7 8 8 8 7 7 7
21 19 18 16 15 14 13 13 13 12 11 11 11 10 10 10 10 9 9 8 8 8 8 8 7 7 7 8 7 6 7 6
20 19 18 16 15 14 13 13 12 11 11 11 10 10 9 9 9 9 8 8 8 8 8 8 7 7 7 7 7 6 6 6
21 20 18 16 15 14 13 13 12 11 11 10 10 9 9 9 9 8 8 8 7 8 7 7 7 6 6 6 6 6 6 6
21 20 18 17 16 14 13 13 12 11 11 10 9 9 9 9 8 7 7 7 7 7 7 7 6 5 5 6 6 6 6 5
21 20 19 17 16 15 14 13 12 12 11 10 10 9 9 8 8 8 7 7 7 7 7 6 6 5 4 4 5 6 6 5
21 20 19 17 16 15 14 13 12 12 11 11 10 9 9 8 8 7 7 7 7 7 6 6 5 4 2 1 3 5 6 5
21 20 19 18 16 15 14 13 12 12 11 11 9 9 8 8 7 7 6 6 6 6 6 6 5 2 3 3 2 4 5 5
21 21 20 18 16 15 14 13 12 11 11 10 9 8 8 7 7 7 6 6 6 6 6 5 4 1 3 2 2 3 5 5
22 22 19 18 16 15 14 13 11 11 10 9 9 8 8 7 7 7 6 6 6 6 5 5 5 2 3 3 3 4 5 4

GFSFLT1_925_temp_282.txt.gz
Temp
24 24 24 18 16 14 13 14 13 14 15 14 14 14 13 13 13 13 13 14 15 15 15 15 15 14 13 14 14 16 17 16
23 24 22 17 14 12 12 12 13 14 14 13 13 13 13 13 13 13 13 13 14 14 14 14 14 13 12 12 13 15 15 14
23 22 20 16 14 12 11 12 13 13 14 15 15 15 14 13 12 12 12 12 12 12 12 12 13 12 11 11 12 13 15 14
22 21 20 17 14 12 12 12 12 13 14 14 14 14 14 14 13 12 11 11 11 11 11 11 11 11 11 11 11 12 13 13
22 21 20 19 15 14 12 12 13 13 14 14 14 14 15 14 13 11 11 10 10 10 10 10 11 10 10 10 10 11 11 11
22 21 20 19 18 16 15 14 14 15 15 16 16 15 14 14 12 11 10 10 10 10 9 10 10 10 9 9 9 9 10 10
22 21 20 18 17 16 16 16 15 15 15 16 16 15 14 13 13 13 12 10 10 9 9 9 9 9 9 9 9 8 9 8
21 21 19 17 16 15 15 15 14 14 14 14 14 14 14 13 13 13 12 11 9 9 9 8 8 8 9 8 8 8 8 7
22 21 19 18 16 15 15 14 13 13 13 13 13 13 13 13 13 13 11 10 9 8 8 8 8 8 8 8 8 8 7 6
22 21 19 17 15 14 14 14 13 13 12 12 12 13 12 12 11 11 10 9 8 8 8 8 8 8 8 8 7 7 6 6
21 20 19 17 15 14 14 13 13 12 12 12 12 12 11 10 10 10 9 9 8 8 8 8 7 7 7 7 7 7 6 6
21 20 18 16 15 14 13 13 13 12 11 11 11 10 10 10 9 9 9 9 9 8 8 8 7 7 7 7 7 7 6 6
21 20 18 17 15 14 13 13 12 11 11 11 10 10 10 9 9 8 8 8 8 8 8 7 7 6 6 6 6 6 6 5
21 20 19 17 16 14 13 13 12 11 11 10 10 10 9 9 8 8 8 8 8 8 7 6 6 5 6 6 6 6 6 5
21 20 19 17 16 15 14 13 12 11 11 10 9 9 9 8 8 8 8 8 7 7 6 6 5 4 4 5 6 6 6 6
21 20 19 17 16 15 14 13 12 11 11 10 9 9 9 8 8 8 8 8 7 7 6 5 4 5 5 5 5 6 6 6
22 21 19 18 16 15 14 13 12 12 11 10 9 9 8 8 8 8 8 7 7 7 6 6 4 5 5 5 5 5 6 5
22 21 19 18 17 15 14 13 12 12 11 10 9 9 8 8 7 7 7 6 6 6 6 5 4 4 5 4 4 5 5 5
22 21 19 18 17 16 15 13 12 12 11 10 9 9 8 7 7 7 7 6 6 6 6 5 4 4 4 4 4 5 5 5